sat.trackr.live / text

‹ back to catalog

GAOFEN-12 04

NORAD 57654 · 2023-123A

PAYLOAD ACTIVE UNKNOWN

§ Identity

Operator
Country
PRC
Launch date
2023-08-20
Launch site
JSC
Launch vehicle
Mass (kg)
RCS (m²)

Purposes: earth_obs

External: N2YO · Heavens-Above · Gunter

§ Orbital elements

Epoch: 2026-05-25T05:18:27.968256Z

Period
97.29 min
Inclination
97.9131°
Eccentricity
0.0001672
Mean motion
14.80176248 rev/d
Perigee alt
627.6 km
Apogee alt
629.9 km
Semi-major
7,006.9 km
B*
1.2033e-4
RAAN
63.5686°
Arg perigee
92.5887°
Mean anomaly
267.5516°
Rev number
14,923

§ Raw data

GAOFEN-12 041 57654U 23123A   26145.22115704  .00000862  00000+0  12033-3 0  99952 57654  97.9131  63.5686 0001672  92.5887 267.5516 14.80176248149230

JSON: /api/v1/satellites/57654 · /tle

For live sub-satellite position, see the globe view (requires WebGL).

§ Visibility from observer

Set your observer location to see the next 7 days of passes ≥ 10°. The values pass through the URL so the page stays shareable.

No JS? Fill the form by hand. The geolocation button needs JavaScript.